Wind_Speed
0 4 7 12 11 4 3 4 5 4 7 2 8 5 13 9 7 7 7 8 9 11 12 18 23 29 30 32 32 32 31 30 24 19 11 11 13 8 3 4 5 6 9 12
4 7 14 3 5 7 4 5 6 6 5 1 7 9 12 6 5 6 9 8 9 8 9 16 21 29 33 34 35 35 33 30 27 23 19 14 12 20 21 16 14 10 5 7
8 7 5 6 5 5 5 5 5 7 5 3 4 6 7 5 9 12 10 10 8 8 8 9 17 24 30 34 35 35 34 33 29 24 18 14 13 17 20 20 18 19 15 11
5 7 5 3 4 4 5 6 6 4 3 3 3 5 6 3 6 8 7 7 6 7 6 9 15 22 28 29 31 33 35 36 34 29 28 27 25 20 18 18 17 15 14 13
6 4 3 4 7 8 7 4 3 1 2 1 3 0 6 6 4 5 5 6 6 6 6 7 13 20 23 27 28 30 31 33 32 33 33 31 29 24 22 20 18 17 15 14
6 1 5 7 2 4 4 4 5 4 3 2 6 6 5 4 5 7 6 6 6 6 5 10 15 18 21 22 25 27 29 30 29 30 30 30 29 28 29 29 30 27 23 21
1 4 2 2 4 2 5 5 2 3 2 5 5 3 6 7 2 13 13 8 7 6 6 6 9 14 17 21 21 23 24 26 25 26 27 27 27 28 28 28 27 29 29 29
6 4 8 4 5 7 5 7 5 6 3 4 5 5 3 4 7 11 8 8 7 6 5 5 8 11 13 16 18 20 22 22 23 24 24 24 24 25 25 24 25 26 26 26
5 5 1 1 2 6 4 4 2 5 2 3 4 1 3 3 5 6 7 6 7 7 5 6 8 10 11 13 15 16 16 18 18 18 19 20 19 20 20 21 22 23 23 24
5 1 2 1 2 2 4 5 3 2 2 5 5 5 5 8 9 7 7 7 7 6 7 5 8 10 10 9 10 10 12 13 13 14 15 14 16 18 19 21 22 23 23 22
5 4 3 3 5 8 2 2 2 3 5 5 2 6 3 9 12 13 10 10 9 9 7 6 11 11 10 8 7 7 8 9 10 11 12 14 16 17 17 19 20 22 24 25
4 4 4 6 1 1 3 6 6 4 5 3 3 11 2 8 12 10 10 10 9 5 7 8 13 12 11 10 9 6 5 4 6 6 7 9 12 15 18 20 22 24 26 27
7 1 2 6 5 2 4 3 4 5 3 5 4 6 1 4 6 8 6 7 6 7 7 7 13 14 14 12 10 8 5 3 2 3 5 7 11 15 19 21 23 25 26 28
6 5 7 9 5 3 3 5 4 5 3 3 8 5 6 5 7 6 7 8 9 8 8 7 8 15 16 14 12 11 9 5 2 3 6 11 14 19 24 26 27 28 28 30
4 5 3 3 5 3 5 8 7 8 6 7 16 9 15 7 5 7 5 3 6 7 8 8 8 13 16 16 15 13 11 9 7 7 9 11 16 23 27 29 31 31 32 32
3 1 3 2 3 5 6 14 6 11 13 11 14 19 15 8 2 2 4 5 6 7 7 8 9 15 19 20 19 15 12 10 9 7 8 14 20 25 28 30 31 34 37 38
6 6 4 5 2 3 8 9 16 12 9 8 11 13 1 5 6 6 7 6 6 6 6 7 9 16 21 19 15 12 9 6 6 9 12 17 21 23 24 28 34 38 38 36
5 5 2 2 3 2 6 2 3 10 7 7 2 4 6 6 5 6 6 6 7 6 7 7 10 10 11 11 11 11 9 7 7 10 14 17 18 22 28 34 34 36 34 32
2 4 3 4 5 6 12 6 7 7 8 7 7 4 6 4 2 3 6 6 7 6 10 15 15 14 13 14 12 10 7 7 10 12 12 14 19 26 27 30 32 32 33 34
3 0 5 3 5 10 7 1 5 5 4 6 7 8 5 6 3 6 7 7 9 14 16 17 16 14 16 13 10 7 6 7 9 10 14 21 22 24 26 29 31 31 31 30
3 1 13 10 4 8 8 6 2 5 7 4 6 7 7 6 9 5 8 8 13 18 18 16 17 22 19 14 9 5 3 5 7 12 17 19 21 23 25 27 28 30 31 30
7 8 5 3 4 8 8 6 7 6 3 6 6 7 11 12 8 7 9 8 13 14 11 18 21 20 15 10 6 4 4 7 12 14 16 18 20 21 23 25 29 30 28 26
2 7 6 11 7 3 7 7 12 5 6 6 6 8 12 11 9 10 10 10 14 15 18 21 20 15 11 7 6 4 6 10 12 13 15 18 20 20 21 24 29 27 23 22
4 4 4 4 5 6 7 12 5 7 9 8 10 11 9 11 12 12 9 9 10 16 21 21 17 14 11 8 6 6 8 10 12 14 16 19 20 22 22 23 26 22 24 21
6 6 4 3 6 7 9 9 10 12 9 11 9 11 14 12 12 11 9 8 14 17 18 19 17 14 12 9 6 6 8 9 11 13 16 18 19 21 23 22 24 23 25 25
7 13 5 7 16 12 12 8 7 9 13 13 13 11 10 12 13 9 9 16 15 17 18 15 12 11 10 8 6 6 7 8 9 12 15 17 19 20 20 21 24 26 23 26
Wind_Direction
144 108 203 209 201 189 185 206 241 282 267 213 267 284 283 261 304 85 103 92 82 65 55 41 42 49 53 53 51 49 50 47 53 54 48 52 51 49 43 337 314 300 280 271
63 213 230 191 168 220 256 256 259 268 253 220 286 286 278 351 32 108 106 84 74 67 45 40 39 46 48 50 52 52 51 50 53 57 55 58 65 56 55 53 45 41 356 287
175 217 170 172 211 173 216 199 225 238 332 283 333 293 300 56 75 75 65 80 73 69 57 36 41 46 52 53 52 51 54 54 54 55 63 75 65 45 40 37 39 39 42 32
233 258 201 176 227 173 274 201 211 208 106 240 22 285 304 144 97 71 73 69 72 70 56 51 47 46 50 56 61 61 57 56 55 57 59 59 57 55 44 38 32 32 29 27
236 197 160 181 222 159 224 153 168 163 188 73 277 336 259 112 132 126 111 100 90 87 86 73 63 65 62 59 59 61 60 58 56 55 56 56 53 49 43 39 37 33 28 25
232 238 180 202 117 166 132 80 54 54 94 299 220 165 278 196 198 147 140 132 118 101 83 77 77 75 69 66 63 62 62 59 57 57 56 55 53 46 41 38 37 35 32 22
238 229 230 175 118 47 91 76 310 334 1 228 175 131 246 323 296 155 140 138 134 127 113 99 80 70 65 62 64 65 64 64 60 59 57 55 52 47 42 38 37 33 29 25
180 270 172 178 199 184 174 160 165 226 215 248 280 240 274 21 65 105 125 138 137 142 134 124 112 94 80 73 68 68 66 65 64 61 55 53 53 46 41 33 31 31 27 20
171 266 123 142 168 141 184 178 191 108 47 48 234 54 130 85 88 115 140 152 166 168 157 150 122 107 96 86 79 74 72 68 63 62 57 49 44 43 33 24 23 22 18 11
202 201 237 238 119 50 148 159 76 2 188 244 276 259 207 192 184 178 181 183 187 182 185 162 137 126 123 106 94 84 74 68 62 57 53 43 35 30 21 12 11 7 3 360
144 136 232 117 208 184 141 203 155 149 156 183 234 258 214 176 181 185 198 203 195 195 186 171 161 150 140 132 126 113 94 77 61 49 37 25 21 16 7 1 356 353 350 347
198 146 179 200 306 300 211 189 165 156 240 245 177 257 15 170 178 177 201 208 213 192 182 169 164 161 162 169 167 153 139 106 72 59 39 22 12 3 354 348 344 343 339 337
177 160 23 347 342 333 203 168 132 94 78 213 199 259 312 123 154 210 227 226 211 193 173 162 171 179 184 184 182 182 181 164 95 36 9 356 351 348 345 340 336 334 332 330
111 160 176 220 185 141 207 183 143 159 156 189 227 290 237 206 227 245 244 224 210 190 179 187 193 200 199 197 195 201 207 209 224 301 324 332 334 337 335 332 331 330 328 325
145 195 160 164 142 182 222 238 167 200 206 208 264 232 259 260 239 248 230 202 192 182 194 201 202 205 205 206 213 221 228 233 248 276 308 324 325 328 327 327 327 326 324 321
32 200 103 299 201 218 256 259 194 215 242 242 253 268 271 285 201 184 210 197 197 201 204 208 215 214 211 218 227 236 246 258 266 285 308 315 314 314 316 317 318 316 314 313
159 139 114 249 58 78 299 233 228 239 213 219 229 242 314 276 241 222 218 190 187 201 207 207 210 215 223 234 242 238 228 224 247 284 304 309 311 312 314 313 312 313 312 312
139 110 99 180 42 255 254 262 238 226 248 202 197 228 206 230 241 204 207 198 227 229 230 224 217 213 217 217 200 191 192 220 269 299 309 309 311 313 313 313 314 314 313 309
176 137 136 172 205 309 288 228 178 178 255 186 190 222 229 232 104 281 229 219 214 204 216 224 231 225 210 186 182 185 213 267 297 311 314 309 311 313 314 314 315 312 310 307
170 69 183 118 174 212 251 231 126 117 285 217 169 214 200 139 176 240 209 198 215 227 235 231 220 200 183 178 189 212 254 289 307 310 309 311 316 318 315 315 313 312 307 300
103 179 215 222 237 281 244 231 134 116 244 195 181 217 174 188 211 208 202 224 233 249 252 230 206 193 186 186 200 221 265 306 298 300 308 314 318 317 316 315 315 313 307 301
157 163 194 142 202 268 182 93 184 206 173 177 199 207 197 214 224 225 220 226 245 238 212 197 185 183 184 198 222 240 290 290 299 308 312 317 319 319 318 317 317 314 303 297
222 191 180 190 203 235 195 198 220 161 184 209 203 216 205 211 226 232 234 229 237 228 206 197 191 182 190 213 247 270 286 299 306 310 316 320 322 323 322 319 316 303 299 298
256 157 214 95 215 221 202 238 240 196 215 218 212 215 201 216 233 240 234 236 224 216 189 188 177 180 192 210 234 281 297 299 306 312 320 326 325 321 325 319 312 294 299 297
199 155 196 273 285 255 244 230 237 253 230 238 226 220 229 221 238 224 239 230 227 202 191 188 189 190 195 205 240 281 288 293 304 313 322 325 322 322 319 310 306 298 298 295
194 226 218 238 246 240 253 243 228 224 237 232 228 241 229 207 228 216 227 231 213 187 187 188 192 196 203 223 259 275 274 284 300 308 321 321 319 320 309 302 302 316 307 306
Height
824 837 840 830 829 825 826 831 836 829 819 822 821 821 810 803 804 812 821 824 826 826 827 825 822 817 813 809 805 802 798 798 796 797 799 802 804 806 807 807 808 809 810 810
834 838 818 818 825 829 832 834 836 828 819 818 820 819 807 807 813 818 824 830 833 833 831 829 826 821 817 815 811 809 807 805 804 804 806 808 809 809 809 809 808 810 810 811
830 817 813 818 821 827 829 832 830 829 822 819 820 823 811 821 823 826 832 834 836 837 837 835 831 826 822 819 819 818 816 813 812 811 811 811 811 812 810 811 811 811 811 812
824 813 813 818 822 823 831 819 821 824 830 839 823 845 820 814 828 833 838 841 841 840 840 840 837 833 829 827 824 822 822 820 819 817 816 817 819 820 821 820 818 815 814 814
816 812 814 817 817 816 820 815 817 819 828 832 833 843 824 822 828 839 842 843 844 843 842 840 839 837 836 833 830 827 826 824 825 824 823 823 825 827 825 822 819 818 818 816
812 805 807 807 807 809 813 818 830 839 842 851 832 835 824 816 815 834 840 842 844 846 846 844 842 838 837 835 834 831 829 830 829 829 828 827 828 830 829 826 824 822 821 820
810 809 803 803 810 812 817 830 847 853 862 843 829 836 817 825 817 822 838 844 846 845 843 843 842 842 840 837 835 833 832 832 834 832 832 830 831 833 834 833 829 826 825 823
819 818 808 804 807 813 821 825 845 856 857 841 833 825 814 836 835 835 839 841 843 844 842 841 840 840 841 840 839 838 838 839 837 835 838 837 834 837 837 838 834 830 829 828
819 814 802 801 801 804 815 824 818 836 896 869 830 825 833 838 838 840 843 844 843 841 842 841 842 842 843 842 841 842 842 841 840 840 837 839 841 837 840 841 837 833 831 831
802 811 805 803 801 807 809 813 830 845 860 868 835 822 814 835 838 838 840 840 840 838 839 841 841 843 844 842 842 842 843 843 843 841 839 842 841 838 839 841 838 836 834 830
799 804 815 808 810 811 815 816 816 823 840 857 863 821 803 814 824 830 833 834 835 835 836 838 840 841 841 842 843 844 844 842 842 841 841 841 839 838 840 839 839 836 833 831
798 809 836 812 807 805 803 808 811 834 834 844 833 803 805 811 817 825 827 828 832 832 834 836 838 840 841 843 843 843 843 842 842 842 842 842 841 840 840 839 837 834 831 828
797 822 858 832 819 810 806 808 811 821 836 849 839 816 814 818 822 824 825 828 830 831 833 835 837 839 840 840 841 841 841 841 841 840 840 840 840 840 839 838 836 832 828 824
789 810 815 807 816 815 819 815 815 816 841 838 820 823 813 821 823 824 823 823 824 826 830 833 835 836 836 837 837 838 838 838 838 838 838 838 837 837 835 833 831 828 825 821
791 802 812 810 812 815 817 815 820 821 820 827 803 816 803 810 816 816 814 817 821 825 829 830 831 832 833 834 834 834 835 836 836 836 836 835 834 832 831 829 826 823 819 816
800 818 820 832 820 821 824 811 819 818 815 818 814 810 801 806 808 813 815 818 820 821 823 825 826 828 828 829 829 831 832 832 833 833 832 831 830 828 826 824 821 818 814 810
805 821 839 837 836 841 850 822 807 800 807 808 816 806 821 812 813 815 817 818 819 819 820 821 821 821 823 824 826 827 828 829 829 829 829 828 826 824 822 820 816 812 807 803
813 826 832 854 870 869 803 804 803 804 803 815 818 824 819 813 811 812 814 816 817 817 818 818 818 819 819 820 822 823 825 826 826 826 825 823 821 820 817 814 810 806 802 797
805 813 839 844 867 834 799 798 804 806 804 808 811 813 809 811 812 813 811 812 812 813 813 814 814 814 815 817 818 820 821 821 821 820 820 820 818 815 812 808 804 801 796 791
811 808 816 880 876 856 802 795 797 799 819 812 812 812 815 814 827 816 807 807 807 808 808 808 808 809 811 813 815 816 817 817 816 816 815 814 812 809 806 803 799 795 791 785
839 825 815 821 867 843 808 803 798 829 804 807 808 804 810 812 802 800 800 802 801 802 802 802 803 804 806 809 811 812 813 813 812 811 810 809 807 803 800 796 792 788 783 779
818 832 836 847 842 837 795 801 806 788 789 790 795 795 797 794 793 795 796 797 796 796 796 797 799 801 803 805 805 806 807 806 806 805 804 803 801 798 795 790 786 782 778 773
803 796 818 811 806 784 788 781 778 779 784 785 786 786 787 789 790 789 790 789 788 788 790 792 794 797 799 800 801 801 801 800 800 799 798 796 795 792 790 786 781 777 773 769
791 788 793 798 783 782 781 777 775 777 777 775 777 777 781 783 781 781 780 780 780 781 782 785 789 792 794 796 796 797 796 796 795 794 792 790 788 786 783 781 777 773 767 764
781 783 785 788 777 775 777 773 770 769 771 771 771 772 772 774 773 773 772 772 772 774 777 781 784 787 790 791 792 792 792 791 790 789 787 785 784 781 777 776 772 767 763 760
766 758 771 775 760 763 761 760 761 764 763 762 763 764 763 764 764 763 764 764 766 769 773 777 780 783 785 786 787 787 788 787 786 784 782 781 780 776 773 770 765 760 757 752